Date String (YYYY-MM-DD hh:mm:ss) UTC,Instrument flags,Ambient pressure (hPa),Sample flow (lpm),Bypass flow (lpm),Sample temperature (°C),Ambient temperature (°C),ASC tube jacket temperature (°C),LED temperature (°C),Box temperature (°C),Sample RH (%),Span deviation,Mass concentration (μg/m³),Mass concentration (μg/m³),Mass concentration (μg/m³)
DateTimeUTC,F1_M11,P_M11,Q1_M11,Q2_M11,T1_M11,T2_M11,T3_M11,T4_M11,T5_M11,U1_M11,ZSPAN_M11,X0_M11,X2_M11,X1_M11
2022-09-07 22:00:00,,0830.5,5.01,0.00,29.5,26.7,00.0,38.1,31.4,17.9,0002.6,0029.93,0015.47,0013.16
2022-09-07 22:01:00,,0830.6,5.00,0.00,29.5,26.8,00.0,38.1,31.4,18.0,0002.0,0030.16,0015.43,0013.12
2022-09-07 22:02:00,,0830.6,5.00,0.00,29.5,27.1,00.0,38.1,31.3,17.6,0001.9,0030.58,0015.32,0013.07
2022-09-07 22:03:00,,0830.5,5.00,0.00,29.5,27.4,00.0,38.1,31.3,17.7,0002.3,0031.76,0015.28,0013.02
2022-09-07 22:04:00,,0830.5,5.00,0.00,29.5,27.7,00.0,38.1,31.3,17.7,0002.5,0030.69,0015.23,0012.98
2022-09-07 22:05:00,,0830.5,5.01,0.00,29.5,28.0,00.0,38.1,31.4,17.7,0002.6,0031.10,0015.15,0012.94
2022-09-07 22:06:00,,0830.5,4.98,0.00,29.6,28.0,00.0,38.1,31.4,17.6,0002.6,0031.51,0015.07,0012.91
2022-09-07 22:07:00,,0830.5,5.01,0.00,29.6,26.9,00.0,38.1,31.4,17.6,0002.0,0031.71,0015.00,0012.86
2022-09-07 22:08:00,,0830.5,5.00,0.00,29.5,26.6,00.0,38.1,31.3,17.6,0001.6,0032.44,0014.97,0012.83
2022-09-07 22:09:00,,0830.4,4.99,0.00,29.5,26.9,00.0,38.1,31.3,17.7,0001.5,0031.42,0014.95,0012.79
2022-09-07 22:10:00,,0830.4,5.01,0.00,29.4,27.2,00.0,38.0,31.2,17.7,0001.2,0031.94,0014.98,0012.76
2022-09-07 22:11:00,,0830.3,5.00,0.00,29.4,27.5,00.0,38.0,31.2,17.9,0001.2,0032.55,0014.96,0012.73
2022-09-07 22:12:00,,0830.4,5.02,0.00,29.5,27.8,00.0,38.0,31.3,18.2,0001.6,0033.46,0014.86,0012.71
2022-09-07 22:13:00,,0830.4,4.99,0.00,29.5,28.1,00.0,38.1,31.4,18.0,0001.8,0034.23,0014.89,0012.72
2022-09-07 22:14:00,,0830.4,5.00,0.00,29.6,28.1,00.0,38.1,31.5,18.0,0001.8,0033.41,0014.91,0012.71
2022-09-07 22:15:00,,0830.4,4.99,0.00,29.5,27.0,00.0,38.1,31.3,18.0,0001.4,0033.79,0014.97,0012.71
2022-09-07 22:16:00,,0830.3,5.01,0.00,29.5,26.6,00.0,38.1,31.3,18.1,0001.4,0033.58,0015.00,0012.71
2022-09-07 22:17:00,,0830.4,5.00,0.00,29.5,26.9,00.0,38.1,31.3,18.2,0001.4,0031.85,0014.97,0012.69
2022-09-07 22:18:00,,0830.3,5.00,0.00,29.5,27.2,00.0,38.1,31.2,18.2,0001.3,0031.64,0014.92,0012.68
2022-09-07 22:19:00,,0830.4,5.01,0.00,29.5,27.5,00.0,38.1,31.2,18.2,0001.1,0032.88,0014.90,0012.69
2022-09-07 22:20:00,,0830.3,5.00,0.00,29.5,27.9,00.0,38.1,31.3,18.2,0001.0,0033.63,0014.88,0012.68
2022-09-07 22:21:00,,0830.4,4.99,0.00,29.5,28.1,00.0,38.1,31.4,18.7,0000.9,0034.60,0014.86,0012.67
2022-09-07 22:22:00,,0830.3,5.01,0.00,29.6,28.2,00.0,38.1,31.5,18.8,0001.1,0035.90,0014.88,0012.71
2022-09-07 22:23:00,,0830.3,5.00,0.00,29.6,27.1,00.0,38.1,31.3,18.5,0001.0,0036.41,0014.96,0012.74
2022-09-07 22:24:00,,0830.3,4.99,0.00,29.5,26.6,00.0,38.1,31.3,18.3,0000.7,0034.77,0014.93,0012.74
2022-09-07 22:25:00,,0830.3,5.01,0.00,29.5,26.9,00.0,38.1,31.3,18.2,0000.4,0033.83,0014.89,0012.74
2022-09-07 22:26:00,,0830.2,4.99,0.00,29.5,27.3,00.0,38.1,31.2,18.3,0000.9,0033.52,0014.86,0012.75
2022-09-07 22:27:00,,0830.3,5.01,0.00,29.5,27.6,00.0,38.1,31.3,18.4,0000.9,0033.68,0014.83,0012.75
2022-09-07 22:28:00,,0830.2,5.01,0.00,29.5,27.9,00.0,38.1,31.4,18.3,0001.5,0033.63,0014.85,0012.74
2022-09-07 22:29:00,,0830.2,4.97,0.00,29.5,28.2,00.0,38.1,31.4,18.2,0001.5,0033.75,0014.87,0012.73
2022-09-07 22:30:00,,0830.2,5.01,0.00,29.6,28.2,00.0,38.1,31.5,18.0,0001.6,0032.83,0014.84,0012.70
2022-09-07 22:31:00,,0830.3,5.00,0.00,29.6,27.2,00.0,38.2,31.3,18.1,0001.7,0032.12,0014.82,0012.69
2022-09-07 22:32:00,,0830.2,5.01,0.00,29.5,26.7,00.0,38.1,31.3,18.1,0001.9,0031.85,0014.81,0012.70
2022-09-07 22:33:00,,0830.2,4.99,0.00,29.5,27.0,00.0,38.1,31.3,18.1,0002.0,0030.38,0014.76,0012.68
2022-09-07 22:34:00,,0830.2,5.01,0.00,29.5,27.2,00.0,38.1,31.2,17.9,0002.4,0030.47,0014.70,0012.66
2022-09-07 22:35:00,,0830.2,5.00,0.00,29.5,27.6,00.0,38.1,31.3,17.5,0002.8,0030.90,0014.65,0012.63
2022-09-07 22:36:00,,0830.2,5.01,0.00,29.5,27.9,00.0,38.1,31.4,17.3,0002.9,0030.94,0014.62,0012.62
2022-09-07 22:37:00,,0830.2,4.98,0.00,29.6,28.2,00.0,38.1,31.4,17.5,0002.9,0031.73,0014.55,0012.59
2022-09-07 22:38:00,,0830.2,5.01,0.00,29.6,28.2,00.0,38.2,31.5,17.3,0003.1,0031.44,0014.52,0012.57
2022-09-07 22:39:00,,0830.1,4.99,0.00,29.6,27.2,00.0,38.2,31.4,17.2,0002.4,0031.81,0014.54,0012.58
2022-09-07 22:40:00,,0830.2,5.01,0.00,29.5,26.8,00.0,38.2,31.4,17.2,0002.5,0032.94,0014.55,0012.60
2022-09-07 22:41:00,,0830.2,5.00,0.00,29.5,27.1,00.0,38.1,31.4,17.1,0002.9,0034.06,0014.59,0012.63
2022-09-07 22:42:00,,0830.1,5.00,0.00,29.5,27.3,00.0,38.1,31.3,16.9,0003.1,0035.19,0014.58,0012.65
2022-09-07 22:43:00,,0830.1,5.00,0.00,29.5,27.6,00.0,38.1,31.3,17.0,0003.0,0035.18,0014.60,0012.65
2022-09-07 22:44:00,,0830.1,5.00,0.00,29.5,28.0,00.0,38.1,31.4,17.0,0002.9,0035.83,0014.62,0012.64
2022-09-07 22:45:00,,0830.1,5.00,0.00,29.6,28.2,00.0,38.1,31.5,16.9,0002.5,0034.93,0014.62,0012.63
2022-09-07 22:46:00,,0830.1,4.98,0.00,29.6,27.6,00.0,38.2,31.5,16.8,0002.1,0035.48,0014.61,0012.62
2022-09-07 22:47:00,,0830.1,5.00,0.00,29.6,26.7,00.0,38.2,31.3,16.6,0001.3,0036.25,0014.64,0012.64
2022-09-07 22:48:00,,0830.1,5.00,0.00,29.5,26.8,00.0,38.1,31.4,16.6,0000.8,0035.39,0014.68,0012.67
2022-09-07 22:49:00,,0830.1,5.00,0.00,29.5,27.2,00.0,38.1,31.3,16.7,0000.4,0035.86,0014.67,0012.67
2022-09-07 22:50:00,,0830.1,5.00,0.00,29.5,27.4,00.0,38.1,31.3,16.7,0000.7,0036.14,0014.60,0012.66
2022-09-07 22:51:00,,0830.1,5.01,0.00,29.5,27.8,00.0,38.1,31.3,16.8,0000.7,0034.99,0014.62,0012.66
2022-09-07 22:52:00,,0830.1,4.98,0.00,29.5,28.1,00.0,38.1,31.4,16.9,0000.8,0032.92,0014.55,0012.63
2022-09-07 22:53:00,,0830.1,5.01,0.00,29.6,28.3,00.0,38.1,31.5,16.8,0001.1,0031.59,0014.50,0012.61
2022-09-07 22:54:00,,0830.1,4.99,0.00,29.6,27.7,00.0,38.2,31.5,16.9,0001.2,0030.76,0014.43,0012.60
2022-09-07 22:55:00,,0830.1,5.00,0.00,29.6,26.7,00.0,38.2,31.3,17.1,0001.0,0029.76,0014.44,0012.61
2022-09-07 22:56:00,,0830.1,5.00,0.00,29.5,26.8,00.0,38.1,31.4,17.4,0001.1,0029.48,0014.43,0012.63
2022-09-07 22:57:00,,0830.1,5.01,0.00,29.5,27.1,00.0,38.1,31.3,17.4,0001.9,0029.13,0014.46,0012.63
2022-09-07 22:58:00,,0830.1,5.00,0.00,29.5,27.4,00.0,38.1,31.2,17.4,0002.7,0028.70,0014.50,0012.61
2022-09-07 22:59:00,,0830.1,5.00,0.00,29.5,27.8,00.0,38.1,31.3,17.2,0003.1,0029.48,0014.59,0012.59
